CW3590 Weather Reports


Display with metric or nautical units.
time (UTC)temp
F
wind
direction
speed
MPH
gust
MPH
rain 1hr
in
rain 24hr
in
rain mn
in
humidity
%
barometer
mb
20260506002009 81 198 1.0 4.0 0.00 0.00 0.00 77 1003.9
20260506001009 82 185 1.0 6.0 0.00 0.00 0.00 76 1004.0
20260506000008 82 173 1.0 3.0 0.00 0.00 0.00 75 1004.0
20260505235009 82 190 1.0 4.0 0.00 0.00 0.00 75 1004.1
20260505234010 82 178 1.0 7.0 0.00 0.00 0.00 75 1004.0
20260505233009 82 194 1.0 6.0 0.00 0.00 0.00 75 1003.9
20260505231008 82 186 2.0 5.0 0.00 0.00 0.00 74 1003.8
20260505225008 83 165 3.0 7.0 0.00 0.00 0.00 73 1003.6
20260505224008 83 181 2.0 9.0 0.00 0.00 0.00 73 1003.6
20260505222009 83 171 3.0 8.0 0.00 0.00 0.00 73 1003.4
20260505220009 84 194 2.0 7.0 0.00 0.00 0.00 73 1003.7
20260505215008 83 177 3.0 7.0 0.00 0.00 0.00 73 1004.0
20260505213009 82 165 2.0 6.0 0.00 0.00 0.00 74 1004.2
20260505212009 83 185 3.0 7.0 0.00 0.00 0.00 75 1004.3
20260505211009 82 187 3.0 9.0 0.00 0.00 0.00 75 1004.5
20260505210009 82 185 3.0 8.0 0.00 0.00 0.00 74 1004.5
20260505205009 82 196 3.0 7.0 0.00 0.00 0.00 75 1004.6
20260505203009 82 175 4.0 9.0 0.00 0.00 0.00 75 1004.7
20260505202010 81 175 3.0 9.0 0.00 0.00 0.00 75 1004.7
20260505201009 81 185 3.0 8.0 0.00 0.00 0.00 75 1004.7
20260505195009 82 187 3.0 7.0 0.00 0.00 0.00 75 1005.1
20260505193010 80 179 3.0 12.0 0.00 0.00 0.00 76 1005.2
20260505192008 81 190 4.0 9.0 0.00 0.00 0.00 76 1005.1
20260505191010 80 193 3.0 9.0 0.00 0.00 0.00 76 1005.2
20260505190008 80 201 3.0 10.0 0.00 0.00 0.00 77 1005.2
20260505183009 79 184 3.0 12.0 0.00 0.00 0.00 78 1005.6
20260505182009 79 185 3.0 12.0 0.00 0.00 0.00 78 1005.5
20260505181009 78 178 4.0 10.0 0.00 0.00 0.00 79 1005.6
20260505180008 78 183 4.0 11.0 0.00 0.00 0.00 79 1005.8
20260505174009 78 197 4.0 15.0 0.00 0.00 0.00 79 1005.7
20260505173009 78 191 4.0 10.0 0.00 0.00 0.00 79 1005.8
20260505172009 78 193 4.0 14.0 0.00 0.00 0.00 80 1005.9
20260505171008 77 172 4.0 8.0 0.00 0.00 0.00 81 1005.9
20260505170008 77 189 4.0 11.0 0.00 0.00 0.00 80 1005.9
20260505165009 77 184 4.0 12.0 0.00 0.00 0.00 80 1006.0
20260505164008 76 205 4.0 12.0 0.00 0.00 0.00 81 1006.0
20260505163009 76 197 4.0 9.0 0.00 0.00 0.00 82 1006.1
20260505162008 75 196 4.0 10.0 0.00 0.00 0.00 84 1006.1
20260505161008 74 183 4.0 11.0 0.00 0.00 0.00 84 1006.2
20260505153008 73 189 3.0 10.0 0.00 0.00 0.00 85 1006.0
20260505152008 73 184 2.0 8.0 0.00 0.00 0.00 84 1006.1
20260505151008 73 198 3.0 7.0 0.00 0.00 0.00 84 1006.2
20260505125007 70 178 4.0 8.0 0.00 0.00 0.00 88 1005.9
20260505124008 70 189 3.0 8.0 0.00 0.00 0.00 87 1005.7
20260505123009 70 182 4.0 10.0 0.00 0.00 0.00 87 1005.6
20260505121009 70 177 3.0 8.0 0.00 0.00 0.00 87 1005.6
20260505120009 70 186 3.0 7.0 0.00 0.00 0.00 87 1005.3
20260505115009 70 191 3.0 9.0 0.00 0.00 0.00 87 1005.2
20260505113008 70 179 3.0 9.0 0.00 0.00 0.00 88 1005.2
20260505112008 70 172 2.0 9.0 0.00 0.00 0.00 88 1005.2
20260505101009 69 171 4.0 15.0 0.00 0.00 0.00 87 1005.1
20260505100008 69 175 3.0 11.0 0.00 0.00 0.00 87 1005.2
20260505095008 69 172 3.0 11.0 0.00 0.00 0.00 87 1005.0
20260505094007 68 178 3.0 11.0 0.00 0.00 0.00 87 1005.0
20260505093009 68 170 3.0 9.0 0.00 0.00 0.00 87 1005.1
20260505092007 68 171 3.0 7.0 0.00 0.00 0.00 87 1005.2
20260505091007 68 173 3.0 8.0 0.00 0.00 0.00 87 1005.4
20260505090009 68 164 3.0 8.0 0.00 0.00 0.00 87 1005.3
20260505085008 68 162 2.0 7.0 0.00 0.00 0.00 87 1005.5
20260505084008 68 161 3.0 5.0 0.00 0.00 0.00 87 1005.6
20260505083008 68 168 3.0 6.0 0.00 0.00 0.00 87 1005.7
20260505082008 68 173 2.0 6.0 0.00 0.00 0.00 87 1005.8
20260505081008 68 164 2.0 8.0 0.00 0.00 0.00 87 1005.9
20260505075007 68 169 3.0 9.0 0.00 0.00 0.00 86 1006.2
20260505074007 68 186 2.0 6.0 0.00 0.00 0.00 86 1006.2
20260505072007 68 153 2.0 7.0 0.00 0.00 0.00 86 1006.4
20260505070008 68 155 2.0 7.0 0.00 0.00 0.00 85 1006.6
20260505065009 68 148 2.0 8.0 0.00 0.00 0.00 85 1006.5
20260505064008 68 150 2.0 6.0 0.00 0.00 0.00 84 1006.6
20260505063008 68 175 1.0 4.0 0.00 0.00 0.00 84 1006.9
20260505062008 68 147 2.0 4.0 0.00 0.00 0.00 84 1007.0
20260505061008 69 184 1.0 5.0 0.00 0.00 0.00 83 1007.0
20260505055007 69 149 2.0 7.0 0.00 0.00 0.00 82 1006.9
20260505054008 69 164 2.0 5.0 0.00 0.00 0.00 82 1007.0
20260505053007 69 173 2.0 4.0 0.00 0.00 0.00 81 1007.2
20260505052007 70 186 2.0 5.0 0.00 0.00 0.00 81 1007.0
20260505051008 70 165 2.0 5.0 0.00 0.00 0.00 81 1007.2
20260505041008 71 158 2.0 4.0 0.00 0.00 0.00 77 1007.3
20260505040007 71 161 2.0 7.0 0.00 0.00 0.00 76 1007.4
20260505035008 71 173 2.0 3.0 0.00 0.00 0.00 75 1007.4
20260505034007 72 168 2.0 5.0 0.00 0.00 0.00 75 1007.4
20260505033007 72 166 2.0 7.0 0.00 0.00 0.00 74 1007.3
20260505032007 72 153 3.0 9.0 0.00 0.00 0.00 73 1007.1
20260505031007 72 150 2.0 6.0 0.00 0.00 0.00 72 1007.0
20260505025008 72 177 2.0 4.0 0.00 0.00 0.00 71 1007.0
20260505024007 73 148 2.0 6.0 0.00 0.00 0.00 70 1006.8
20260505023008 73 162 1.0 3.0 0.00 0.00 0.00 70 1007.0
20260505022007 73 154 1.0 3.0 0.00 0.00 0.00 69 1007.0
20260505021009 73 145 2.0 3.0 0.00 0.00 0.00 68 1007.1
20260505020007 73 135 1.0 3.0 0.00 0.00 0.00 68 1007.1
20260505015007 74 138 1.0 4.0 0.00 0.00 0.00 67 1007.0
20260505013008 74 134 1.0 4.0 0.00 0.00 0.00 66 1006.8
20260505012006 75 183 1.0 5.0 0.00 0.00 0.00 64 1006.8
20260505011008 75 179 2.0 5.0 0.00 0.00 0.00 64 1006.9
20260505010009 75 174 2.0 5.0 0.00 0.00 0.00 63 1006.8
20260505005007 76 165 2.0 6.0 0.00 0.00 0.00 62 1006.7
20260505004008 76 170 2.0 5.0 0.00 0.00 0.00 61 1006.6
20260505003007 76 159 2.0 6.0 0.00 0.00 0.00 61 1006.7